Philip Billard Municipal Airport Topeka US
ICAO: KTOP
IATA: TOP
Category: Medium
Scheduled Services: No

Elevation: 881 ft
TransAlt. 18000 ft.

Airport Communications:
ASOS:121.275
CLNC DEL:121.9
KANSAS CITY CNTR:123.8
CTAF:118.7
GND:121.9
WICHITA RDO:122.45
TOPEKA TWR:118.7
UNICOM:122.95

KTOP Zoom In..

If you have problems with the map follow the link
https://www.worldairports.se/pages/airport.php?
ICAO=KTOP

Runways:

(A) RW 04 length 3001 ft width 100 ft
---- / hdg 44

(B) RW 13 length 5099 ft width 100 ft
ILS 110.70 / hdg 129

(C) RW 18 length 4331 ft width 75 ft
---- / hdg 177

(D) RW 22 length 3001 ft width 100 ft
---- / hdg 224

(E) RW 31 length 5099 ft width 100 ft
---- / hdg 309

(F) RW 36 length 4331 ft width 75 ft
---- / hdg 357

Location; KTOP
Day. 25 / Time. 21.53 Zulu
* Altimeter: 30.02
* Temperature: 01° c. 33.8°f.
* Wind from: KTO° Speed P kn.
Dewpoint: -02° c.
Visibility: 10 Statute Miles.
Clouds: Overcast 11000 ft.

KTOP 252153Z 10004KT 10SM OVC110 01/M02 A3002 RMK AO2 SLP173 T00111022


Wind From KTO°
Speed P kn.

 
 
jpsmedia worldairports.se 2020   terms of use